USA 130 (DSP 18)

Last updated on Sat Jul 03 2021 10:41:25 GMT+0000 (Coordinated Universal Time)

1 24737U 97008A 21183.84035080 -.00000261 00000-0 00000+0 0 9999 2 24737 13.7552 16.7149 0007908 307.4546 222.7222 0.99032228 13445
UTC large
Height (km)
Speed (km/s)
/
Latitude / Longitude
Inclination (degrees)
Orbital Period (minutes)
Azimuth
Elevation
Range (km)
Doppler Factor

Next 0 passes for location: London (51.5072 / 0.1276)

Sorry there are no passes over London.